Location: Nitra
(48.3167°N, 18.0833°E)
Time: 12:30:49
(UTC+01:00)

FALCON 9 DEB - Pass Details

Date: 24 September 2020
Orbit: 158 x 180 km, 53.0° (Epoch: 28 September)

Event Time Altitude Azimuth Distance (km) Brightness Sun altitude
Exits shadow 03:45:06 - 67° (ENE) 1,654 ? -27.8°
Enters shadow 04:38:00 -70° 270° (W) 12,251 ? -20.2°
Maximum altitude 05:14:19 24° 13° (NNE) 454 ? -14.5°
